User: anonymous   Login
Location: Unspecified
(0.0000°N, 0.0000°E)
Time: 12:54:59
(UTC+00:00)
Language:

Max Valier Satellite - Orbit

View from above orbital plane
View from above orbital plane
View from above satellite
View from above satellite

Ground track
Ground track

The orbit data is extracted from the following two-line orbital elements,

1 42778U 17036P   21295.89273316  .00002153  00000-0  91194-4 0  9992
2 42778  97.2406 340.2630 0013470  88.0250 272.2530 15.24128136240699
Epoch (UTC): 22 October 2021 21:25:32
Eccentricity: 0.0013470
inclination: 97.2406°
perigee height: 484 km
apogee height: 502 km
right ascension of ascending node: 340.2630°
argument of perigee: 88.0250°
revolutions per day: 15.24128136
mean anomaly at epoch: 272.2530°
orbit number at epoch: 24069

The dashed part of the orbit path shows where the satellite is in the earth's shadow,  

DLR